Find Starlink 3374

NORAD ID: 51112 Int'l Des: 2022-005 Owner: SPXS Country: US Constellation: starlink operational
LEOCIRCULAR

リアルタイム位置

3D地球を読み込み中...

Starlink 3374について

説明を読み込み中...

次回通過

Passes for default location (London). Set your location on the main map for personalized predictions.

高度履歴

Loading altitude history...

軌道要素

1 51112U 22005J 26126.98759008 .00001586 00000-0 11775-3 0 9996
2 51112 53.2186 27.3815 0001443 103.6954 256.4199 15.08823186237687
Epoch: May 6, 2026 • Age: 8 hours

現在のステータス

高度 553.3 km
速度 7.58 km/s
衛星直下点 -38.60°S, 12.99°E
打ち上げ日 Jan 19, 2022
運用期間 4.2 years
タイプ internet

技術仕様

分類 Payload
質量 297.00 kg
乾燥質量 275.00 kg
総質量 297.00 kg
長さ 0.20 m
直径 2.80 m
スパン 9.00 m
形状 Box + pan
製造者 SPXS
バスタイプ Starlink
フェーズステータス In Orbit
所有者/国 SPXS/US

Most Searched